Date,TemperatureHighF,TemperatureAvgF,TemperatureLowF,DewpointHighF,DewpointAvgF,DewpointLowF,HumidityHigh,HumidityAvg,HumidityLow,PressureMaxIn,PressureMinIn,WindSpeedMaxMPH,WindSpeedAvgMPH,GustSpeedMaxMPH,PrecipitationSumIn
2013-1-1,46.9,44.0,38.8,36.4,27.1,9.5,85,55,22,30.60,30.46,10,3,10,0.13
2013-1-2,48.2,38.7,34.0,35.0,25.8,10.9,92,63,29,30.79,30.55,11,3,11,0.07
2013-1-3,41.5,33.6,26.8,22.5,9.1,-6.7,70,38,14,30.83,30.73,11,3,11,0.00
2013-1-4,51.4,38.0,27.0,22.3,6.4,-7.4,72,34,10,30.81,30.69,14,4,14,0.00
2013-1-5,54.3,39.7,27.5,20.2,7.3,-8.3,59,30,10,30.95,30.77,10,3,10,0.00
2013-1-6,59.2,46.1,37.8,30.9,17.4,-0.8,72,37,10,30.78,30.60,11,4,11,0.01
2013-1-7,52.5,41.9,31.8,23.0,16.6,1.0,65,39,12,31.02,30.71,17,4,17,0.00
2013-1-8,52.7,41.7,32.2,29.6,24.3,18.5,73,52,26,31.04,30.94,10,3,10,0.00
2013-1-9,71.8,53.2,36.7,71.5,38.6,28.5,99,59,42,30.97,29.63,16,4,16,0.01
2013-1-10,63.7,49.4,39.9,44.8,23.7,0.6,97,48,10,30.14,29.93,14,2,14,0.00
2013-1-11,46.9,42.5,35.4,46.3,36.4,24.5,99,80,53,30.06,29.66,9,2,9,0.05
2013-1-12,55.6,49.4,45.1,51.9,48.2,44.9,99,96,79,29.73,29.65,8,2,8,0.00
2013-1-13,72.0,58.7,49.8,63.1,56.6,49.6,99,93,62,29.69,29.56,14,4,14,0.01
2013-1-14,64.6,57.2,42.8,62.5,53.7,39.5,97,88,81,29.81,29.56,22,7,22,0.58
2013-1-15,72.0,41.5,38.5,71.7,40.6,37.7,99,97,88,30.02,29.78,17,6,17,0.81
2013-1-16,44.2,40.2,36.0,43.6,39.3,35.5,99,97,92,29.83,29.62,14,4,14,0.31
2013-1-17,45.3,39.8,32.4,45.1,39.1,31.9,99,97,87,29.84,29.69,17,3,17,0.67
2013-1-18,45.3,34.8,29.5,36.3,21.2,-8.6,99,66,12,30.24,29.81,14,2,14,0.24
2013-1-19,55.8,42.1,30.0,17.2,9.3,-4.0,57,30,10,30.19,29.77,18,6,18,0.06
2013-1-20,63.1,49.2,35.6,16.0,5.6,-9.1,40,19,10,29.78,29.59,23,7,23,0.00
2013-1-21,55.9,42.5,27.5,13.5,-1.1,-16.0,51,19,10,29.81,29.49,17,4,17,0.00
2013-1-22,35.1,28.2,18.7,-6.2,-20.9,-28.7,17,10,10,30.01,29.64,18,6,18,0.00
2013-1-23,35.1,25.1,12.4,12.3,-17.4,-30.3,51,16,10,30.07,29.81,14,3,14,0.00
2013-1-24,29.8,23.7,17.4,19.3,-3.9,-27.6,80,40,10,30.26,29.72,29,8,29,0.00
2013-1-25,25.5,20.2,14.7,15.2,-0.8,-25.1,73,46,10,30.25,29.79,14,3,14,0.00
2013-1-26,45.0,31.2,21.6,18.9,13.3,-3.0,75,52,15,30.15,29.78,8,2,8,0.01
2013-1-27,45.3,33.5,24.1,21.3,7.4,-11.5,68,38,10,30.32,30.14,10,2,10,0.00
2013-1-28,56.3,42.9,32.0,37.6,26.3,12.1,87,54,29,30.22,29.81,21,7,21,0.19
2013-1-29,77.4,60.5,46.0,46.5,37.6,29.0,76,47,18,29.86,29.72,11,5,11,0.00
2013-1-30,72.0,69.1,62.6,70.6,53.9,46.7,99,59,50,30.14,29.33,31,13,31,0.02
2013-1-31,66.9,47.4,31.3,61.0,9.3,-14.8,89,29,10,30.02,29.27,27,10,30,0.40
2013-2-1,37.9,31.7,20.7,14.9,-10.0,-25.8,44,18,10,30.46,29.83,24,8,24,0.00
2013-2-2,37.4,27.3,16.3,21.1,-2.3,-21.7,72,34,10,30.46,30.05,16,4,16,0.00
2013-2-3,46.0,35.4,27.5,21.4,10.7,-7.1,71,40,12,30.06,29.88,17,3,17,0.00
2013-2-4,41.7,34.0,23.0,8.8,-4.0,-16.0,53,22,10,30.19,29.98,15,4,15,0.00
2013-2-5,60.1,48.3,41.2,16.5,6.5,-3.4,30,19,10,29.98,29.88,15,5,15,0.00
2013-2-6,59.9,44.8,29.7,24.0,14.0,-3.3,73,35,10,30.40,29.97,12,3,12,0.00
2013-2-7,44.6,37.6,30.9,31.0,18.6,10.3,79,48,27,30.48,30.20,15,5,15,0.06
2013-2-8,52.5,41.5,35.6,35.6,29.0,6.7,91,66,23,30.20,29.80,18,8,18,0.47
2013-2-9,52.7,39.8,29.8,13.9,-3.0,-17.1,47,18,10,30.44,30.00,19,6,19,0.00
2013-2-10,50.9,38.3,23.7,13.8,-3.7,-14.8,50,19,10,30.56,30.30,11,3,11,0.00
2013-2-11,61.7,51.4,38.8,53.3,42.6,13.8,92,73,31,30.31,29.85,23,8,23,0.05
2013-2-12,63.9,53.3,42.4,32.2,4.2,-5.6,39,15,10,30.07,29.87,14,4,14,0.00
2013-2-13,51.1,47.6,46.0,14.1,5.0,-4.8,27,18,10,29.98,29.89,5,1,5,0.00
2013-2-14,57.7,42.0,29.7,36.0,20.9,-2.8,88,54,10,30.12,29.86,8,3,8,0.00
2013-2-15,66.2,49.4,32.7,30.0,14.1,-4.2,74,34,10,30.13,29.96,23,5,23,0.00
2013-2-16,40.8,35.0,30.9,30.8,26.6,-0.7,87,72,25,30.09,29.90,17,6,17,0.15
2013-2-17,37.4,29.5,24.4,6.5,-11.9,-24.4,44,18,10,30.32,29.92,21,8,21,0.01
2013-2-18,51.3,35.1,17.6,-1.1,-9.4,-25.3,40,16,10,30.48,30.28,15,4,15,0.00
2013-2-19,49.5,41.8,34.0,43.2,23.3,-13.0,85,54,10,30.29,29.84,17,7,17,0.08
2013-2-20,50.9,39.2,28.0,30.9,-2.1,-17.1,74,21,10,30.23,29.94,17,5,17,0.00
2013-2-21,48.7,35.2,24.8,0.0,-7.2,-16.0,33,17,10,30.38,30.21,16,5,16,0.00
2013-2-22,38.7,34.5,31.5,29.4,12.3,-9.6,82,43,15,30.45,30.27,11,4,11,0.01
2013-2-23,44.1,38.6,34.2,39.9,35.4,29.4,92,88,80,30.28,29.88,12,4,12,0.12
2013-2-24,63.3,46.9,34.3,41.5,23.3,-6.7,95,52,10,30.18,29.86,27,5,27,0.01
2013-2-25,47.7,36.4,27.5,17.0,2.7,-10.6,57,28,10,30.31,30.18,16,4,16,0.00
2013-2-26,70.9,51.2,49.1,70.6,49.8,48.0,99,95,93,30.37,29.84,15,4,17,0.41
2013-2-27,62.2,49.5,39.2,48.0,29.8,0.5,97,59,10,30.01,29.83,18,5,18,0.01
2013-2-28,53.8,44.3,38.1,31.3,12.2,-6.7,64,33,10,30.06,29.92,18,5,18,0.00
2013-3-1,48.2,40.3,33.3,19.3,9.3,-4.8,54,29,11,30.19,30.05,17,5,17,0.00
2013-3-2,41.0,35.6,31.8,12.9,7.2,-3.2,45,31,17,30.20,30.11,14,5,14,0.00
2013-3-3,49.1,36.1,27.0,12.6,-1.2,-13.0,53,24,10,30.23,30.09,18,5,18,0.00
2013-3-4,53.6,36.8,23.4,5.4,-5.0,-16.2,41,19,10,30.35,30.22,17,4,17,0.00
2013-3-5,52.5,38.8,28.0,31.9,7.4,-11.1,87,36,10,30.39,29.99,21,4,21,0.30
2013-3-6,70.9,35.0,32.5,70.6,31.9,30.1,99,88,78,30.14,29.71,45,15,45,1.10
2013-3-7,70.9,70.9,70.9,70.6,70.6,6.1,99,99,99,29.92,29.84,8,8,8,0.01
2013-3-8,50.9,45.3,40.3,12.3,3.8,-6.5,31,19,10,30.02,29.89,31,14,31,0.00
2013-3-9,66.9,47.1,35.6,15.1,6.5,-7.3,42,23,10,30.10,30.00,17,4,17,0.00
2013-3-10,69.8,50.3,29.7,32.7,11.4,-4.1,66,28,10,30.10,29.97,13,3,13,0.00
2013-3-11,68.4,54.5,41.2,40.7,35.9,25.0,90,55,21,30.02,29.70,21,6,21,0.00
2013-3-12,72.1,59.0,44.2,59.0,46.1,20.4,92,65,34,29.71,29.47,30,9,30,0.38
2013-3-13,55.9,45.7,32.4,29.5,5.3,-14.6,76,25,10,29.85,29.67,22,7,22,0.00
2013-3-14,55.2,41.1,28.4,3.3,-5.6,-15.5,33,15,10,29.94,29.80,23,6,23,0.09
2013-3-15,60.8,46.1,30.7,11.5,-2.1,-15.7,28,14,10,29.99,29.64,19,5,19,0.00
2013-3-16,73.4,55.7,45.7,52.8,31.9,11.3,91,46,14,29.69,29.40,34,5,34,0.27
2013-3-17,47.1,38.8,32.7,38.2,32.2,28.9,86,77,69,30.11,29.69,11,5,13,0.25
2013-3-18,36.1,33.8,32.4,33.2,31.0,28.8,92,89,86,30.12,29.70,16,4,16,0.46
2013-3-19,68.9,47.2,34.0,34.6,20.5,-4.8,92,52,10,29.80,29.56,27,5,27,0.01
2013-3-20,59.9,49.6,33.4,3.2,-4.7,-17.5,10,10,10,29.89,29.59,26,6,26,0.00
2013-3-21,48.6,37.1,28.2,22.8,-4.0,-21.3,73,21,10,29.77,29.55,27,9,27,0.00
2013-3-22,54.3,38.5,24.6,-1.2,-10.8,-22.0,23,12,10,29.84,29.72,17,5,17,0.00
2013-3-23,61.0,43.8,27.3,17.2,-0.5,-14.0,53,19,10,29.89,29.74,16,3,16,0.00
2013-3-24,44.4,36.7,32.0,28.7,14.8,-11.3,86,47,10,29.82,29.45,15,4,15,0.02
2013-3-25,39.4,35.1,32.2,31.7,29.6,26.9,90,81,65,29.54,29.34,11,2,11,0.13
2013-3-26,51.1,41.0,29.8,30.9,11.4,-7.2,84,38,10,29.86,29.54,21,5,21,0.00
2013-3-27,54.5,42.6,31.3,19.9,3.5,-10.5,58,25,10,30.00,29.85,18,6,18,0.00
2013-3-28,54.9,43.6,31.8,14.6,1.7,-7.4,47,21,10,30.09,29.96,21,6,21,0.00
2013-3-29,62.4,47.9,37.4,18.1,5.9,-5.4,43,21,10,30.12,29.98,19,4,19,0.00
2013-3-30,69.3,52.6,36.0,21.6,9.7,-4.0,53,22,10,30.07,29.92,14,3,14,0.00
2013-3-31,57.4,50.5,45.7,48.6,35.6,7.9,87,62,19,29.95,29.58,13,4,13,0.14
2013-4-1,72.9,57.6,45.0,49.4,22.6,-7.4,91,40,10,29.82,29.57,22,7,22,0.01
2013-4-2,60.4,47.1,31.5,16.3,-1.2,-12.5,47,15,10,30.00,29.81,23,4,23,0.00
2013-4-3,61.3,45.9,29.7,7.9,-2.2,-16.1,39,15,10,30.21,29.99,24,5,24,0.00
2013-4-4,53.4,41.0,30.7,33.4,1.7,-16.0,87,26,10,30.26,29.88,17,4,17,0.37
2013-4-5,70.3,50.9,36.3,37.4,19.3,-1.6,91,45,10,29.88,29.67,18,6,18,0.19
2013-4-6,67.1,51.4,41.4,19.6,-0.3,-11.1,37,13,10,30.15,29.86,20,7,20,0.00
2013-4-7,74.5,56.0,35.4,28.8,15.4,2.0,68,27,10,30.14,29.86,22,7,22,0.00
2013-4-8,84.4,70.0,55.8,38.2,23.7,12.8,48,21,10,29.93,29.80,17,6,17,0.00
2013-4-9,91.0,76.5,62.2,44.4,29.5,16.5,51,21,10,29.94,29.80,16,6,16,0.00
2013-4-10,93.6,80.5,67.8,70.6,30.2,19.5,99,19,10,30.03,29.78,21,8,21,0.00
2013-4-11,88.5,77.0,65.8,50.2,35.8,19.6,57,26,10,29.86,29.71,21,8,21,0.00
2013-4-12,88.0,74.6,64.9,63.5,45.4,11.5,90,44,10,29.72,29.50,21,8,21,0.46
2013-4-13,76.8,64.5,47.7,46.9,18.7,5.3,64,22,10,29.90,29.63,24,5,24,0.00
2013-4-14,63.3,57.3,56.7,22.2,20.4,4.2,26,24,10,30.07,29.89,9,2,9,0.00
2013-4-15,67.5,59.1,52.3,49.1,38.5,2.8,82,52,10,30.22,30.03,14,5,14,0.07
2013-4-16,79.7,66.2,57.0,51.6,45.6,33.4,74,51,22,30.26,30.12,14,3,14,0.00
2013-4-17,82.6,72.5,62.8,55.4,47.2,37.8,74,46,21,30.15,30.05,11,6,11,0.00
2013-4-18,80.8,63.2,59.0,53.6,49.7,25.0,80,67,14,30.16,29.97,14,5,14,0.00
2013-4-19,83.1,71.1,64.4,62.7,54.9,16.0,89,61,10,29.98,29.59,25,9,25,0.40
2013-4-20,70.7,58.2,49.8,59.2,18.7,-2.6,81,28,10,30.27,29.67,15,4,15,0.00
2013-4-21,61.2,50.5,41.5,15.8,4.5,-4.8,34,16,10,30.53,30.26,23,6,23,0.00
2013-4-22,60.1,49.0,35.8,36.4,18.8,2.8,71,34,10,30.51,30.31,20,8,20,0.00
2013-4-23,71.2,53.0,47.3,40.0,31.9,10.8,73,48,10,30.31,29.61,13,7,13,0.00
2013-4-24,80.1,63.7,44.8,44.9,34.1,12.8,86,44,10,29.77,29.52,24,7,24,0.00
2013-4-25,74.3,60.6,49.8,43.9,16.9,-1.5,46,21,10,29.94,29.59,22,6,22,0.00
2013-4-26,77.0,58.4,11.3,41.2,20.6,-0.2,76,32,10,30.11,29.86,16,3,16,0.00
2013-4-27,77.5,63.3,49.1,35.3,18.7,6.0,54,22,10,29.99,29.85,11,3,11,0.09
2013-4-28,67.6,58.7,50.7,43.0,21.7,4.2,63,29,10,29.88,29.71,11,3,11,0.00
2013-4-29,55.4,55.4,55.4,43.0,43.0,43.0,63,63,63,29.73,29.56,3,3,4,0.00
2013-4-30,64.9,58.7,55.4,55.8,52.2,43.0,98,80,59,29.82,29.63,17,6,17,0.02
2013-5-1,70.9,57.5,0.0,53.5,28.6,7.7,92,43,10,30.00,29.67,17,4,17,0.01
2013-5-2,72.0,36.7,0.0,71.7,40.2,7.7,99,51,99,30.01,29.57,11,4,11,0.02
2013-5-3,72.9,59.2,46.4,70.6,37.5,7.5,99,59,10,29.85,29.77,24,8,24,0.02
2013-5-4,66.6,57.3,49.5,40.4,30.9,26.2,68,38,24,29.81,29.66,17,9,17,0.02
2013-5-5,64.6,54.4,35.2,43.9,34.9,-4.0,73,50,18,29.70,29.62,20,8,20,0.00
2013-5-6,69.4,59.2,52.7,57.9,51.7,43.7,89,77,43,29.64,29.45,24,8,24,0.09
2013-5-7,76.1,64.6,56.8,62.9,56.2,42.1,99,79,30,29.48,29.33,15,6,15,0.43
2013-5-8,71.2,62.3,54.9,59.6,49.0,39.2,99,67,32,29.52,29.43,12,4,12,0.04
2013-5-9,65.8,65.8,65.8,42.7,42.7,42.7,43,43,43,29.53,29.45,6,6,8,0.04
2013-5-10,90.3,76.9,65.8,70.6,37.1,21.4,99,28,10,29.98,29.50,15,6,15,17.31
2013-5-11,83.1,76.3,69.3,56.4,47.8,-44.0,63,38,20,29.83,29.63,18,6,18,17.31
2013-5-12,72.5,66.1,61.0,61.2,55.2,52.3,97,69,49,29.95,29.63,8,3,8,0.27
2013-5-13,71.1,64.5,45.1,70.8,40.9,-2.3,99,48,10,30.05,29.91,11,3,11,18.79
2013-5-14,75.9,64.6,43.9,28.1,10.2,2.5,51,13,10,30.11,29.92,11,4,11,0.00
2013-5-15,90.9,74.0,57.6,45.5,25.7,4.2,32,18,10,29.93,29.62,17,7,19,0.00
2013-5-16,93.6,76.7,65.1,62.1,43.6,20.8,87,42,10,29.81,29.66,21,3,21,0.31
2013-5-17,89.8,74.5,63.1,61.9,38.1,12.2,92,40,10,30.03,29.78,13,3,13,0.00
2013-5-18,70.2,62.8,59.5,62.3,58.2,26.0,99,86,19,30.08,29.98,11,3,11,0.66
2013-5-19,81.1,69.7,62.4,67.4,60.4,54.4,99,76,42,30.06,29.94,19,2,19,0.00
2013-5-20,88.5,73.9,65.3,66.8,60.6,44.3,96,67,24,29.98,29.85,14,4,14,0.04
2013-5-21,86.7,75.3,68.7,66.9,62.1,53.9,86,66,34,29.90,29.76,11,4,11,0.00
2013-5-22,88.5,78.2,70.3,66.3,60.7,50.5,83,58,29,29.85,29.72,19,6,19,0.01
2013-5-23,88.0,74.9,68.7,68.3,61.1,43.8,88,65,22,29.82,29.65,18,4,18,0.30
2013-5-24,68.4,61.3,49.3,60.5,38.8,3.2,85,51,10,30.04,29.64,27,7,27,0.06
2013-5-25,76.3,57.7,42.4,25.5,13.1,-0.1,49,20,10,30.12,29.97,21,5,21,0.00
2013-5-26,81.0,63.4,45.9,36.7,18.6,3.6,59,22,10,30.13,30.01,15,3,15,0.00
2013-5-27,81.7,66.4,50.5,46.7,27.4,7.5,54,28,10,30.16,30.04,10,2,10,0.00
2013-5-28,91.2,74.7,58.5,53.6,47.3,33.2,72,42,14,30.07,29.95,17,5,17,0.00
2013-5-29,93.4,81.0,69.8,55.9,46.2,26.9,61,34,10,30.03,29.96,19,6,19,0.00
2013-5-30,95.4,81.4,69.1,57.5,47.1,27.0,65,35,10,30.09,30.00,13,5,13,0.00
2013-5-31,94.5,81.7,69.8,59.2,45.6,25.9,67,33,10,30.06,29.92,16,5,16,0.00
2013-6-1,95.2,82.7,72.0,62.1,48.2,27.5,69,35,10,29.95,29.82,17,6,17,0.00
2013-6-2,89.1,78.1,68.9,68.2,56.4,43.2,95,51,21,29.85,29.73,20,6,20,0.40
2013-6-3,89.4,75.1,68.7,71.9,62.4,41.1,99,71,20,29.83,29.67,19,3,19,0.14
2013-6-4,87.6,71.1,59.5,65.7,32.5,11.6,90,33,10,30.00,29.82,18,5,18,0.01
2013-6-5,85.8,72.5,57.4,50.0,33.0,17.3,69,29,10,30.04,29.92,12,3,12,0.00
2013-6-6,81.3,70.6,60.3,65.8,51.8,39.5,85,52,34,29.95,29.68,17,4,17,0.02
2013-6-7,72.7,70.1,67.8,71.3,68.9,3.8,99,96,85,29.92,29.40,18,5,18,1.23
2013-6-8,90.0,73.6,66.6,70.1,59.6,25.4,99,72,10,29.95,29.62,6,1,6,0.34
2013-6-9,90.5,75.2,63.3,71.5,59.7,40.1,99,67,19,30.03,29.91,24,3,24,1.16
2013-6-10,84.9,75.2,70.0,72.6,68.2,61.4,99,81,49,29.95,29.69,19,5,19,0.25
2013-6-11,89.6,78.0,70.0,68.7,56.3,33.9,89,54,15,29.78,29.67,13,4,13,0.01
2013-6-12,96.3,82.8,68.5,65.2,52.7,32.6,67,41,12,29.78,29.67,11,3,11,0.00
2013-6-13,94.3,83.0,70.2,69.8,62.6,30.6,78,54,17,29.69,29.38,18,6,18,0.17
2013-6-15,90.0,81.7,69.3,61.0,31.0,20.3,73,19,10,29.96,29.44,9,3,16,0.28
2013-6-16,92.7,79.6,70.3,63.9,50.2,32.0,74,38,13,29.91,29.78,14,6,14,0.05
2013-6-17,91.2,77.7,69.3,67.4,61.6,47.8,87,61,24,29.86,29.75,11,4,11,0.08
2013-6-18,79.9,72.6,66.2,70.2,65.1,60.3,92,78,64,29.82,29.60,20,4,20,0.41
2013-6-19,82.0,70.9,64.4,68.6,58.2,44.5,99,68,28,30.01,29.74,11,3,11,0.00
2013-6-20,86.4,73.9,63.7,63.1,39.7,18.1,88,40,10,30.14,30.01,10,3,12,0.00
2013-6-21,90.1,72.9,56.5,59.0,40.6,17.1,79,40,10,30.17,30.08,11,3,11,0.00
2013-6-22,91.2,75.4,64.4,68.1,57.4,37.5,87,60,16,30.14,30.02,14,3,14,0.05
2013-6-23,93.9,78.9,68.7,72.4,63.6,41.0,99,67,18,30.07,29.95,11,3,11,0.33
2013-6-24,95.0,82.4,72.9,67.8,60.7,38.1,83,52,15,30.02,29.90,11,4,11,0.00
2013-6-25,97.9,85.4,73.6,67.9,55.6,29.9,80,44,10,29.94,29.78,11,4,11,0.00
2013-6-26,94.6,87.1,73.9,66.7,57.3,47.1,76,42,21,29.83,29.75,11,4,11,0.00
2013-6-27,94.6,94.6,94.6,50.0,50.0,50.0,22,22,22,29.75,29.75,4,4,6,0.00
2013-6-28,94.6,93.0,70.9,71.7,51.3,50.0,99,26,22,30.44,29.75,11,4,11,12.65
2013-6-29,95.4,82.1,71.2,66.4,52.4,26.0,80,45,10,30.07,29.90,13,4,13,0.01
2013-6-30,93.0,79.6,71.4,71.1,64.0,48.5,87,63,23,30.23,30.06,13,4,13,0.14
2013-7-1,88.3,76.3,69.8,73.7,68.5,56.6,99,80,35,30.36,30.21,13,3,13,0.40
2013-7-2,83.5,75.5,72.5,73.3,68.9,63.7,99,80,54,30.56,30.35,15,4,15,0.33
2013-7-3,90.0,77.4,71.8,75.2,69.1,56.9,98,78,36,30.61,30.52,14,3,14,0.66
2013-7-4,95.7,82.7,73.6,73.9,61.1,38.4,99,56,15,30.64,30.53,14,5,14,0.01
2013-7-5,93.6,82.9,72.9,68.3,61.0,48.2,83,51,22,30.62,30.50,11,5,13,0.00
2013-7-6,95.7,84.5,75.7,69.6,58.6,28.2,79,47,10,30.58,30.45,14,4,14,0.00
2013-7-7,93.7,84.0,75.6,67.7,61.3,48.8,75,49,23,30.51,30.37,16,5,16,0.00
2013-7-8,93.9,80.6,72.0,69.5,60.7,35.5,88,55,13,30.50,30.41,11,3,11,0.05
2013-7-9,93.9,82.9,74.5,69.0,62.9,46.0,80,54,22,30.48,30.37,10,3,10,0.00
2013-7-10,95.4,81.2,72.7,72.2,64.8,50.7,96,61,25,30.42,30.25,21,4,21,0.44
2013-7-11,86.2,76.5,71.2,71.8,67.5,57.8,98,76,39,30.31,30.23,9,3,9,0.12
2013-7-12,78.3,72.6,66.9,69.5,64.7,60.8,96,77,57,30.41,30.24,14,5,14,0.33
2013-7-13,90.3,77.2,67.5,70.8,64.3,54.2,96,67,33,30.61,30.40,8,3,8,0.01
2013-7-14,94.3,82.1,72.1,77.1,60.3,27.7,99,58,10,30.69,30.61,9,2,9,0.00
2013-7-15,100.4,85.0,71.6,73.6,57.4,30.9,94,49,10,30.68,30.56,7,2,7,0.00
2013-7-16,99.0,84.8,74.5,72.5,61.1,43.0,90,51,16,30.59,30.50,15,3,15,0.31
2013-7-17,98.8,85.9,73.6,79.1,60.6,31.3,99,52,10,30.57,30.45,11,2,11,0.01
2013-7-18,103.8,88.4,74.7,73.7,58.4,32.7,91,45,10,30.50,30.37,8,2,8,0.00
2013-7-19,97.0,87.9,77.4,71.4,62.1,44.4,79,45,19,30.41,30.26,14,4,14,0.00
2013-7-20,97.3,84.9,78.3,66.8,62.5,46.5,66,49,19,30.30,30.20,14,6,14,0.00
2013-7-21,96.1,84.7,75.9,69.0,62.0,46.8,77,51,20,30.29,30.23,11,4,11,0.00
2013-7-24,89.2,89.2,89.2,56.4,56.4,56.4,33,33,33,30.08,30.08,7,7,7,0.00
2013-7-25,89.2,89.2,89.2,56.4,56.4,56.4,33,33,33,30.08,30.08,7,7,7,0.00
2013-7-26,91.9,74.3,60.1,58.2,44.0,21.2,82,43,10,30.07,29.98,10,2,10,0.00
2013-7-27,87.3,77.1,67.3,65.1,56.5,45.0,87,52,23,30.03,29.88,14,3,14,0.00
2013-7-28,93.6,78.1,68.7,67.7,57.7,28.5,90,56,10,29.95,29.83,13,3,13,0.43
2013-7-29,70.7,69.0,67.1,69.4,66.0,57.3,98,90,70,30.03,29.94,8,2,8,0.01
2013-7-31,72.1,70.1,69.1,67.4,65.5,63.5,93,85,75,30.03,29.98,9,2,9,0.30
2013-8-1,92.7,73.4,67.6,75.0,66.5,44.5,99,83,22,29.99,29.78,14,3,20,0.96
2013-8-2,92.7,79.0,66.2,71.5,49.1,24.4,99,50,10,29.95,29.82,15,2,15,0.01
2013-8-3,93.2,83.7,69.8,60.4,41.2,25.5,72,31,10,29.95,29.89,6,3,6,0.00
2013-8-4,92.1,92.1,92.1,27.8,27.8,27.8,10,10,10,29.90,29.90,3,3,4,0.00
2013-8-5,92.1,92.1,92.1,27.8,27.8,27.8,10,10,10,29.90,29.90,3,3,4,0.00
2013-8-6,92.1,92.1,92.1,27.8,27.8,27.8,10,10,10,29.90,29.90,3,3,4,0.00
2013-8-7,92.1,92.1,92.1,27.8,27.8,27.8,10,10,10,29.90,29.90,3,3,4,0.00
2013-8-8,92.1,92.1,92.1,27.8,27.8,27.8,10,10,10,29.90,29.90,3,3,4,0.00
2013-8-9,92.1,92.1,92.1,27.8,27.8,27.8,10,10,10,29.90,29.90,3,3,4,0.00
2013-8-10,92.1,86.0,70.9,70.6,41.2,27.8,99,33,10,30.00,29.90,9,3,9,1.19
2013-8-11,91.8,77.1,70.5,72.1,66.9,52.5,99,74,27,30.01,29.90,8,1,8,0.02
2013-8-12,94.5,81.9,71.2,75.3,58.4,28.1,99,56,10,29.94,29.82,12,2,12,0.00
2013-8-13,92.7,80.9,74.3,69.9,62.5,44.4,76,57,20,29.82,29.64,9,3,9,0.13
2013-8-14,79.3,70.1,59.7,69.0,34.2,11.0,87,34,10,30.00,29.70,21,7,21,0.01
2013-8-15,83.7,67.4,57.7,53.4,38.7,15.4,73,42,10,30.08,29.99,10,3,10,0.00
2013-8-16,79.7,67.7,56.3,56.5,42.8,15.2,88,49,10,30.10,30.01,13,2,13,0.00
2013-8-17,79.5,69.7,61.3,63.7,50.7,43.3,86,52,29,30.14,30.06,15,5,15,0.13
2013-8-18,68.0,65.7,63.9,65.0,63.1,60.8,97,91,85,30.12,30.04,13,5,16,0.48
2013-8-19,75.6,68.4,63.7,66.5,63.6,60.6,99,86,61,30.11,29.98,8,1,8,0.09
2013-8-20,93.0,77.7,68.0,72.6,61.0,34.0,99,64,13,30.09,30.00,8,2,8,0.00
2013-8-21,95.4,79.7,69.1,74.6,62.4,40.3,99,62,16,30.12,29.98,11,2,11,0.02
2013-8-22,96.1,82.1,72.5,69.0,55.1,26.9,87,48,10,30.02,29.85,11,2,11,0.00
2013-8-23,81.5,71.1,61.0,68.9,62.4,54.0,89,75,43,30.02,29.83,23,3,23,0.78
2013-8-24,85.1,70.8,59.4,62.7,49.3,20.8,99,57,10,30.23,30.01,15,3,15,0.01
2013-8-25,86.7,71.0,61.0,63.0,44.0,16.6,94,49,10,30.31,30.18,12,3,12,0.00
2013-8-26,90.9,74.2,57.2,52.3,39.0,21.4,79,36,10,30.23,29.95,9,3,9,0.00
2013-8-27,95.9,79.0,66.4,69.3,49.7,27.8,80,43,10,29.96,29.80,8,2,8,0.04
2013-8-28,83.3,76.0,71.2,73.2,66.3,57.0,99,73,46,29.85,29.72,12,2,12,0.37
2013-8-29,87.1,76.4,69.4,73.2,65.1,50.6,99,72,30,29.92,29.70,22,5,22,0.01
2013-8-30,92.8,77.8,65.8,68.5,53.3,26.9,99,52,10,29.96,29.81,10,2,10,0.00
2013-8-31,92.1,79.3,70.7,65.7,58.1,47.1,79,52,22,29.85,29.71,14,4,14,0.01
2013-9-1,99.1,80.9,70.5,68.5,58.2,31.5,91,55,10,29.78,29.65,8,2,10,0.08
2013-9-2,95.2,80.6,72.3,69.3,60.0,29.4,88,57,10,29.73,29.64,10,3,10,0.00
2013-9-3,90.3,79.2,71.6,68.0,52.6,24.4,85,46,10,29.85,29.64,17,4,17,0.00
2013-9-4,87.8,74.5,66.0,56.5,38.1,17.8,70,32,10,29.99,29.85,16,4,16,0.00
2013-9-5,93.9,76.6,61.9,62.3,41.3,19.5,87,40,10,30.01,29.89,14,3,14,0.00
2013-9-6,84.4,70.6,61.2,49.3,33.3,15.9,65,29,10,30.13,30.00,15,5,15,0.00
2013-9-7,81.7,72.2,57.7,56.7,40.2,25.8,84,40,14,30.04,29.96,11,3,11,0.00
2013-9-8,79.9,79.5,70.9,70.6,36.6,32.6,99,23,18,30.09,29.91,8,5,8,3.47
2013-9-9,85.1,75.1,68.2,62.6,51.2,39.3,75,45,25,30.19,30.00,13,4,13,0.00
2013-9-10,96.4,80.9,68.7,68.6,55.9,30.0,94,52,10,30.20,30.10,11,3,11,0.00
2013-9-11,95.0,83.6,72.7,61.1,48.8,26.2,66,34,10,30.18,30.04,14,4,14,0.00
2013-9-12,95.5,80.1,68.5,67.6,52.9,29.7,91,47,10,30.05,29.76,17,4,32,0.54
2013-9-13,83.3,72.6,63.3,69.2,43.5,15.8,99,48,10,29.93,29.72,17,5,20,0.01
2013-9-14,75.4,62.9,53.2,41.2,27.3,8.6,62,31,10,30.17,29.92,21,6,21,0.00
2013-9-15,84.4,66.1,48.9,46.7,31.5,13.6,78,38,10,30.27,30.11,11,2,11,0.00
2013-9-16,82.2,67.3,57.4,52.2,46.7,39.6,66,49,23,30.23,30.08,14,4,14,0.00
2013-9-17,73.2,61.1,50.2,47.9,32.5,7.5,75,42,10,30.41,30.22,17,5,17,0.00
2013-9-18,78.6,60.5,45.1,42.6,29.0,10.0,78,41,10,30.35,30.19,8,2,8,0.00
2013-9-19,82.8,66.3,51.1,55.5,36.0,16.6,82,43,10,30.22,30.09,9,2,9,0.00
2013-9-20,85.3,69.7,57.9,50.7,41.2,19.2,70,41,10,30.11,29.96,9,2,9,0.00
2013-9-21,77.0,67.7,60.3,64.5,53.6,41.4,93,63,29,29.98,29.70,20,4,20,0.58
2013-9-22,78.3,66.7,59.5,64.1,41.9,12.5,99,52,10,29.95,29.73,18,5,18,0.05
2013-9-23,73.8,59.8,50.5,40.4,28.1,7.5,68,37,10,30.11,29.94,17,5,17,0.00
2013-9-24,80.6,61.0,47.5,45.5,31.5,10.7,77,44,10,30.13,29.97,11,2,11,0.00
2013-9-25,81.9,64.2,49.8,57.1,35.8,13.8,89,45,10,29.99,29.88,13,2,13,0.00
2013-9-26,78.8,65.9,55.9,50.2,36.9,12.7,77,43,10,30.07,29.91,14,4,14,0.00
2013-9-27,75.9,61.9,52.5,53.2,43.2,19.4,88,56,14,30.23,30.07,14,3,14,0.00
2013-9-28,71.4,62.4,53.1,48.1,43.2,32.6,80,53,25,30.30,30.20,14,5,14,0.00
2013-9-29,77.4,65.5,52.7,52.6,40.4,15.5,90,47,11,30.21,30.06,16,6,16,0.00
2013-9-30,72.1,72.1,72.1,34.4,34.4,34.4,25,25,25,30.06,30.06,9,9,11,0.00
2013-10-1,72.1,72.1,72.1,34.4,34.4,34.4,25,25,25,30.06,30.06,9,9,11,0.00
2013-10-2,91.8,74.2,64.0,70.6,35.6,19.5,99,28,10,30.06,29.88,9,6,11,2.29
2013-10-3,90.3,73.1,59.2,59.7,43.8,21.8,82,46,10,29.99,29.90,8,1,8,0.00
2013-10-4,93.4,76.0,64.2,57.9,46.2,23.9,77,45,10,29.97,29.88,11,2,11,0.00
2013-10-5,97.0,77.8,65.5,59.6,46.6,23.9,75,44,10,29.96,29.86,10,1,10,0.00
2013-10-6,91.6,77.6,66.4,59.5,44.7,21.3,75,40,10,29.91,29.79,16,4,16,0.00
2013-10-7,78.3,70.2,58.5,63.4,58.9,39.4,86,68,48,29.92,29.70,24,6,25,0.44
2013-10-8,63.5,57.9,52.9,41.2,33.4,22.3,55,40,21,30.12,29.92,20,6,20,0.01
2013-10-9,57.9,56.0,54.0,50.6,44.5,37.4,86,66,49,30.12,29.99,21,9,21,0.60
2013-10-10,57.4,55.5,53.8,53.9,51.5,49.5,90,86,81,29.99,29.80,23,11,23,0.80
2013-10-11,63.3,59.8,57.2,60.0,55.5,52.4,96,86,71,29.82,29.76,19,8,19,0.04
2013-10-12,65.3,62.9,61.0,64.0,62.0,59.4,99,97,91,29.98,29.80,15,7,15,0.05
2013-10-13,61.2,61.0,61.0,60.9,60.7,60.7,99,99,99,29.98,29.97,11,8,11,0.00
2013-10-14,61.0,61.0,61.0,60.7,60.7,60.7,99,99,99,29.98,29.98,8,8,10,0.00
2013-10-15,61.0,61.0,61.0,60.7,60.7,60.7,99,99,99,29.98,29.98,8,8,10,0.00
2013-10-16,61.0,61.0,61.0,60.7,60.7,60.7,99,99,99,29.98,29.98,8,8,10,0.00
2013-10-17,61.0,61.0,61.0,60.7,60.7,60.7,99,99,99,29.98,29.98,8,8,10,0.00
2013-10-18,61.0,61.0,61.0,60.7,60.7,60.7,99,99,99,29.98,29.98,8,8,10,0.00
2013-10-19,61.0,61.0,61.0,60.7,60.7,60.7,99,99,99,29.98,29.98,8,8,10,0.00
2013-10-20,61.0,61.0,61.0,60.7,60.7,60.7,99,99,99,29.98,29.98,8,8,10,0.00
2013-10-21,61.0,61.0,61.0,60.7,60.7,60.7,99,99,99,29.98,29.98,8,8,10,0.00
2013-10-22,61.0,61.0,61.0,60.7,60.7,60.7,99,99,99,29.98,29.98,8,8,10,0.00
2013-10-23,89.1,58.6,44.2,60.7,52.7,18.3,99,85,10,30.22,29.92,11,7,11,0.18
2013-10-24,59.2,46.5,36.7,26.0,11.8,-4.4,63,31,10,30.33,30.09,12,2,12,0.00
2013-10-25,61.3,44.9,32.5,19.0,7.8,-9.0,56,27,10,30.51,30.32,12,2,12,0.00
2013-10-26,61.0,45.6,30.4,22.1,7.3,-5.4,68,29,10,30.51,30.15,19,4,19,0.00
2013-10-27,70.9,53.0,41.4,70.6,12.2,-4.4,99,24,10,30.06,29.91,11,2,11,0.00
2013-10-28,70.7,52.1,37.8,37.9,24.6,5.4,76,44,10,30.19,30.05,8,1,8,0.00
2013-10-29,72.0,57.1,48.9,37.4,27.9,7.5,61,39,10,30.29,30.17,8,2,8,0.00
2013-10-30,67.8,57.2,48.2,49.4,44.5,35.7,82,64,40,30.24,30.08,11,2,11,0.04
2013-10-31,72.9,64.5,54.3,55.9,46.4,36.6,94,57,27,30.11,29.77,16,4,16,0.00
2013-11-1,71.4,69.0,65.5,60.4,53.5,46.1,80,58,43,29.78,29.56,21,7,21,0.01
2013-11-2,76.1,62.8,50.4,56.5,33.5,4.2,90,46,10,29.84,29.56,17,3,17,0.00
2013-11-3,62.1,49.2,39.9,31.5,13.5,-9.5,63,30,10,30.34,29.83,24,4,24,0.00
2013-11-4,50.9,41.8,34.3,13.8,2.5,-9.7,39,21,10,30.55,30.33,16,5,16,0.00
2013-11-5,58.3,47.3,37.6,36.7,22.1,9.9,57,38,18,30.53,30.38,12,3,12,0.00
2013-11-6,69.4,61.4,45.0,42.5,29.5,22.8,81,37,17,30.39,30.26,8,4,8,0.00
2013-11-7,70.9,63.1,41.2,70.6,26.8,5.5,99,28,17,30.26,29.92,14,5,14,0.04
2013-11-8,58.5,44.5,34.2,19.7,6.2,-9.3,48,24,10,30.38,30.13,14,3,14,0.00
2013-11-9,59.9,45.6,28.9,30.9,5.3,-6.5,65,27,10,30.43,30.14,20,4,20,0.00
2013-11-10,70.7,54.9,43.2,11.5,2.1,-9.8,20,12,10,30.32,30.02,22,6,22,0.00
2013-11-11,61.5,49.0,33.3,20.2,1.7,-10.8,47,16,10,30.40,30.12,12,4,12,0.00
2013-11-12,51.1,43.4,33.1,15.1,-7.1,-17.6,26,12,10,30.47,30.02,33,9,33,0.00
2013-11-13,46.0,34.6,25.7,5.0,-8.4,-19.4,37,17,10,30.56,30.46,21,4,22,0.00
2013-11-14,64.0,44.3,27.0,6.4,-4.4,-18.3,40,14,10,30.47,30.32,12,4,12,0.00
2013-11-15,62.4,50.9,38.5,38.3,-0.5,-13.3,63,13,10,30.35,30.25,11,3,11,0.02
2013-11-16,58.1,52.9,48.9,53.5,47.3,36.8,97,82,60,30.36,30.28,5,2,5,0.38
2013-11-17,69.6,60.2,50.5,62.5,50.2,41.2,99,73,37,30.29,29.85,17,3,17,0.01
2013-11-18,74.5,64.3,52.3,60.0,25.5,-2.6,81,34,10,29.99,29.78,17,5,17,0.15
2013-11-19,52.5,45.7,38.7,6.4,-3.7,-10.0,24,13,10,30.42,29.98,27,7,27,0.00
2013-11-20,51.3,40.9,34.0,23.1,7.8,-9.1,56,29,10,30.58,30.41,14,6,16,0.00
2013-11-21,59.0,46.2,37.4,31.3,24.7,8.0,58,45,14,30.59,30.45,10,3,10,0.00
2013-11-22,72.1,59.1,46.0,46.1,33.1,18.5,56,40,14,30.45,30.06,17,5,17,0.00
2013-11-23,62.4,51.9,39.6,47.0,9.0,-12.6,59,22,10,30.21,30.05,21,7,21,0.00
2013-11-24,39.6,30.4,22.5,0.1,-19.1,-25.8,23,10,10,30.60,30.21,28,9,28,0.00
2013-11-25,39.9,29.7,18.3,-2.6,-14.4,-26.5,37,15,10,30.65,30.42,12,3,12,0.00
2013-11-26,61.0,40.8,34.7,60.7,19.5,-15.4,99,53,10,30.44,29.59,23,4,23,0.86
2013-11-27,42.1,38.5,31.6,40.8,28.4,-16.8,96,73,12,30.14,29.54,17,6,21,0.96
2013-11-28,45.0,32.3,23.4,11.4,-5.3,-18.7,52,22,10,30.53,30.14,10,2,10,0.00
2013-11-29,47.1,34.3,24.6,12.8,-3.8,-16.9,58,24,10,30.75,30.50,17,4,17,0.00
2013-11-30,44.4,34.4,26.6,12.5,0.3,-13.7,49,26,10,30.75,30.42,11,3,11,0.00
2013-12-1,55.8,37.6,24.8,22.2,8.1,-8.6,64,36,10,30.42,30.06,11,2,11,0.00
2013-12-2,62.4,44.5,28.6,27.0,11.1,-3.7,68,34,10,30.07,29.89,9,1,9,0.00
2013-12-3,61.9,47.1,34.5,29.7,18.1,-1.9,68,39,10,30.05,29.91,9,2,9,0.00
2013-12-4,61.0,53.8,47.5,46.0,39.1,26.0,77,58,36,30.13,30.04,9,2,9,0.00
2013-12-5,64.8,60.5,52.9,57.2,53.7,46.2,91,78,65,30.15,30.01,12,5,12,0.04
2013-12-6,69.1,57.7,43.0,57.7,48.6,35.9,84,72,50,30.16,29.97,24,8,24,0.01
2013-12-7,45.7,40.0,33.6,38.0,19.9,5.7,82,48,19,30.58,30.13,21,9,21,0.37
2013-12-8,33.6,31.6,30.2,26.5,17.1,0.5,81,59,25,30.61,30.34,17,3,17,0.00
2013-12-9,38.3,34.9,31.5,34.0,29.6,26.0,90,81,75,30.34,30.09,8,2,11,0.11
2013-12-10,38.3,35.1,30.2,34.8,29.6,11.6,96,81,45,30.31,30.03,12,3,12,0.31
2013-12-11,48.7,36.0,25.5,12.0,-1.2,-14.7,50,24,10,30.47,30.30,11,3,11,0.00
2013-12-12,40.6,32.2,27.9,8.0,-9.1,-21.7,40,18,10,30.48,30.30,20,4,20,0.00
2013-12-13,51.1,36.3,26.6,0.4,-14.5,-22.5,22,10,10,30.39,30.28,14,4,14,0.00
2013-12-14,45.9,39.1,34.5,40.3,18.3,-8.3,90,50,10,30.36,29.78,13,3,13,0.63
2013-12-15,57.4,43.2,34.9,36.7,14.2,-9.7,89,44,10,30.04,29.70,17,4,17,0.01
2013-12-16,48.7,38.4,31.6,20.1,7.1,-9.1,54,31,10,30.21,30.03,9,3,9,0.00
2013-12-17,55.4,41.1,29.5,33.5,17.4,-3.4,78,47,10,30.17,29.95,15,3,15,0.48
2013-12-18,48.0,37.8,29.1,34.5,8.5,-15.1,79,40,10,30.29,30.00,16,3,16,0.00
2013-12-19,65.3,48.0,29.5,7.5,-1.1,-15.4,38,14,10,30.29,30.18,17,6,17,0.00
2013-12-20,66.9,56.5,48.6,37.2,12.9,-5.5,45,20,10,30.23,30.09,24,8,24,0.00
2013-12-21,72.3,63.6,54.5,54.1,36.6,21.7,65,39,16,30.14,30.02,23,8,23,0.00
2013-12-22,74.3,67.1,60.8,57.8,53.2,50.1,81,62,45,30.10,29.96,21,8,21,0.48
2013-12-23,66.4,58.6,41.4,59.8,47.8,7.3,86,69,24,30.26,29.99,26,7,26,0.27
2013-12-24,45.9,37.3,26.8,9.6,-5.3,-22.4,36,18,10,30.53,30.24,24,9,26,0.00
2013-12-25,38.7,27.0,19.4,8.1,-15.3,-25.8,49,16,10,30.64,30.45,16,4,16,0.00
2013-12-26,52.9,35.0,21.6,12.6,1.3,-16.5,61,29,10,30.45,30.27,18,3,18,0.00
2013-12-27,54.0,38.9,25.2,10.6,-2.0,-16.1,46,22,10,30.51,30.39,11,2,11,0.00
2013-12-28,62.8,46.4,29.7,5.3,-5.5,-16.8,31,11,10,30.42,30.19,17,4,17,0.00
2013-12-29,52.3,47.0,42.4,50.7,34.9,-5.1,94,68,10,30.20,29.64,16,4,16,1.00
2013-12-30,55.6,44.1,37.4,32.1,20.4,3.4,64,41,13,30.22,29.90,13,4,13,0.00
2013-12-31,53.1,39.5,29.1,19.8,2.4,-15.8,61,25,10,30.40,30.19,21,4,21,0.00
2014-1-1,52.7,36.9,26.1,12.9,2.8,-9.7,49,28,10,30.46,30.18,15,2,15,0.00
2014-1-2,46.8,36.1,29.3,29.9,17.2,-5.8,79,50,11,30.18,29.62,10,2,10,0.31